Snowfall_Accumulation
0.0 0.0 0.0 0.0 0.0 0.0 0.0 0.0 0.0 0.0 0.0 0.0 0.0 0.0 0.0 0.0 0.0 0.0 0.0 0.0 0.0 0.0 0.0 0.0 0.0 0.0 0.0
0.4 0.5 0.3 0.0 0.0 0.0 0.0 0.0 0.0 0.0 0.0 0.0 0.0 0.0 0.0 0.0 0.0 0.0 0.0 0.0 0.0 0.0 0.0 0.0 0.0 0.0 0.0
0.4 0.1 0.3 0.0 1.3 0.1 0.0 0.0 0.0 0.0 0.0 0.0 0.0 0.0 0.0 0.0 0.0 0.0 0.0 0.0 0.0 0.0 0.0 0.0 0.0 0.0 0.0
0.4 0.4 0.9 0.6 0.4 0.6 0.2 0.2 0.0 0.0 0.0 0.0 0.0 0.0 0.0 0.0 0.0 0.0 0.0 0.0 0.0 0.0 0.0 0.0 0.0 0.0 0.0
1.4 1.1 0.3 0.2 0.2 0.1 0.2 0.1 0.1 0.0 0.0 0.0 0.0 0.0 0.0 0.0 0.0 0.0 0.0 0.0 0.0 0.0 0.0 0.0 0.0 0.0 0.0
1.6 0.2 0.0 0.1 0.0 0.1 0.6 0.5 0.8 0.0 0.0 0.0 0.0 0.0 0.0 0.0 0.0 0.0 0.0 0.0 0.0 0.0 0.0 0.0 0.0 0.0 0.0
0.0 0.0 0.0 0.0 0.9 0.7 0.4 1.2 0.6 0.0 0.0 0.2 0.0 0.0 0.0 0.0 0.0 0.0 0.0 0.0 0.0 0.0 0.0 0.0 0.0 0.0 0.0
0.0 0.0 0.3 0.0 0.3 0.7 0.5 0.7 0.2 0.0 0.0 0.5 0.0 0.0 0.0 0.0 0.0 0.0 0.0 0.0 0.0 0.0 0.0 0.0 0.0 0.0 0.0
0.1 0.0 0.0 0.0 0.0 0.6 0.6 1.0 0.6 0.0 0.0 0.0 0.0 0.0 0.0 0.0 0.0 0.0 0.0 0.0 0.0 0.0 0.0 0.0 0.0 0.0 0.0
0.0 0.0 0.0 0.0 0.0 0.0 0.8 3.7 2.0 1.5 0.0 1.6 0.0 0.4 2.5 0.0 0.0 0.0 0.0 0.0 0.0 0.0 0.0 0.0 0.0 0.2 0.4
0.0 0.0 0.0 0.0 0.0 0.0 0.1 2.7 6.0 3.9 0.0 4.5 5.8 0.1 3.0 0.9 0.0 0.0 0.0 0.0 0.0 0.0 0.0 0.0 0.4 0.6 2.0
0.0 0.0 0.0 0.0 0.0 0.0 0.0 0.2 0.5 3.2 0.9 1.4 10.5 2.9 6.2 3.5 0.1 0.0 0.0 0.0 0.0 0.0 0.1 0.6 0.8 0.8 0.5
0.0 0.0 0.0 0.0 0.0 0.0 0.0 0.0 0.0 0.0 0.2 0.2 2.5 2.9 5.9 6.5 3.3 0.2 0.8 0.0 0.0 1.0 1.5 2.1 2.2 2.2 3.2
0.1 0.0 0.0 0.0 0.0 0.0 0.3 0.0 0.7 0.0 0.0 0.0 0.4 2.2 5.8 2.5 4.8 3.0 0.7 2.5 0.8 0.7 1.5 1.0 0.9 1.3 2.0
0.2 0.2 0.0 0.0 0.0 0.0 0.2 0.9 1.8 0.3 0.2 0.0 0.0 0.2 0.4 1.7 4.8 1.0 0.8 0.9 1.6 2.2 2.0 1.7 0.4 1.0 1.4
0.1 0.0 0.8 0.3 0.5 0.2 0.1 0.7 1.7 0.3 0.4 0.1 0.1 0.6 0.0 0.0 0.6 3.0 2.5 1.8 1.4 1.5 1.5 4.7 2.2 0.3 0.3
0.6 0.6 1.7 1.2 0.0 0.3 0.1 0.2 0.5 0.2 0.3 0.4 1.6 4.3 6.2 1.2 0.2 0.7 7.1 4.4 1.7 1.6 1.9 3.1 4.9 2.8 0.9